EUTELSAT 25B

Last updated on Oct. 13, 2020, 5:50 a.m. UTC

1 39233U 13044A   20286.85313368  .00000138  00000-0  00000-0 0  9999
2 39233   0.0552   9.7682 0001730 193.6926 151.0887  1.00275775 25846
UTC
Height (km)
Latitude
Longitude
Inclination
Orbital Period
UTC large
Height (km)
Speed (km/s)
/
Latitude / Longitude
Inclination (degrees)
Orbital Period (minutes)
Azimuth
Elevation
Range (km)
Doppler Factor
iOS Compass Heading
iOS Angle

Next 30 passes for location: Hong Kong

Rise time Rise Azimuth (degrees) Set time Set Azimuth (degrees) Duration Max altitude (degrees)

No matching passes for this satellites